{"data":{"norad_id":55350,"epoch":"2026-05-24T23:13:05.043072Z","epoch_age_seconds":84826,"freshness":"FRESH","line1":"1 55350U 23013V   26144.96741948  .00000137  00000+0  14519-4 0  9996","line2":"2 55350  43.0051 232.2399 0002096 278.3284  81.7330 15.27577568183348","mean_motion":15.27577568,"eccentricity":0.0002096,"inclination_deg":43.0051,"raan_deg":232.2399,"arg_perigee_deg":278.3284,"mean_anomaly_deg":81.733,"bstar":1.4519e-5,"rev_number":18334,"period_min":94.266898792271,"perigee_km":481.61827220012,"apogee_km":484.49448446432,"semimajor_km":6861.1933783322,"source":"CELESTRAK","updated_at":"2026-05-25T13:38:17.763659Z"}}